Previsão horária em Pleven

Hoje, 2 Março, Terça-feira

Tempo Temperatura Precipitação Vento Pressão Humidade
00:00 +3°C° 0 mm 1 m/s 758 mmHg 88%
01:00 +3°C° 0 mm 1 m/s 758 mmHg 87%
02:00 +3°C° 0 mm 1 m/s 758 mmHg 87%
03:00 +3°C° 0 mm 1 m/s 758 mmHg 87%
04:00 +3°C° 0 mm 1 m/s 758 mmHg 87%
05:00 +2°C° 0 mm 2 m/s 758 mmHg 86%
06:00 +2°C° 0 mm 2 m/s 758 mmHg 85%
07:00 +2°C° 0 mm 2 m/s 758 mmHg 84%
08:00 +3°C° 0 mm 2 m/s 758 mmHg 82%
09:00 +5°C° 0 mm 1 m/s 758 mmHg 75%
10:00 +7°C° 0 mm 1 m/s 758 mmHg 67%
11:00 +8°C° 0 mm 1 m/s 758 mmHg 59%
12:00 +8°C° 0 mm 2 m/s 758 mmHg 57%
13:00 +9°C° 0 mm 2 m/s 757 mmHg 54%
14:00 +10°C° 0 mm 3 m/s 757 mmHg 51%
15:00 +10°C° 0 mm 3 m/s 757 mmHg 53%
16:00 +10°C° 0 mm 3 m/s 756 mmHg 55%
17:00 +10°C° 0 mm 3 m/s 756 mmHg 56%
18:00 +9°C° 0 mm 2 m/s 756 mmHg 61%
19:00 +8°C° 0 mm 2 m/s 756 mmHg 65%
20:00 +7°C° 0 mm 1 m/s 756 mmHg 69%
21:00 +6°C° 0 mm 2 m/s 756 mmHg 70%
22:00 +6°C° 0 mm 2 m/s 756 mmHg 71%
23:00 +5°C° 0 mm 2 m/s 756 mmHg 72%

Amanhã, 3 Março, Quarta-feira

Tempo Temperatura Precipitação Vento Pressão Humidade
00:00 +5°C° 0 mm 2 m/s 756 mmHg 73%
01:00 +5°C° 0 mm 2 m/s 756 mmHg 73%
02:00 +5°C° 0 mm 2 m/s 756 mmHg 73%
03:00 +4°C° 0 mm 2 m/s 756 mmHg 73%
04:00 +4°C° 0 mm 2 m/s 756 mmHg 72%
05:00 +4°C° 0 mm 2 m/s 756 mmHg 72%
06:00 +5°C° 0 mm 1 m/s 756 mmHg 70%
07:00 +6°C° 0 mm 1 m/s 756 mmHg 69%
08:00 +6°C° 0 mm 1 m/s 756 mmHg 67%
09:00 +8°C° 0 mm 1 m/s 756 mmHg 60%
10:00 +10°C° 0 mm 1 m/s 756 mmHg 52%
11:00 +12°C° 0 mm 1 m/s 756 mmHg 45%
12:00 +13°C° 0 mm 2 m/s 755 mmHg 43%
13:00 +13°C° 0 mm 2 m/s 755 mmHg 42%
14:00 +14°C° 0 mm 2 m/s 755 mmHg 40%
15:00 +14°C° 0 mm 2 m/s 755 mmHg 41%
16:00 +14°C° 0 mm 2 m/s 754 mmHg 43%
17:00 +14°C° 0 mm 1 m/s 754 mmHg 44%
18:00 +12°C° 0 mm 1 m/s 754 mmHg 49%
19:00 +11°C° 0 mm 1 m/s 754 mmHg 54%
20:00 +9°C° 0 mm 0 m/s 755 mmHg 58%
21:00 +9°C° 0 mm 1 m/s 754 mmHg 59%
22:00 +9°C° 0 mm 1 m/s 754 mmHg 61%
23:00 +8°C° 0 mm 1 m/s 754 mmHg 62%

Depois de amanhã, 4 Março, Quinta-feira

Tempo Temperatura Precipitação Vento Pressão Humidade
00:00 +8°C° 0 mm 1 m/s 754 mmHg 62%
01:00 +8°C° 0 mm 1 m/s 753 mmHg 63%
02:00 +7°C° 0 mm 1 m/s 753 mmHg 64%
03:00 +7°C° 0 mm 1 m/s 752 mmHg 64%
04:00 +7°C° 0 mm 1 m/s 752 mmHg 64%
05:00 +7°C° 0 mm 1 m/s 751 mmHg 64%
06:00 +7°C° 0 mm 1 m/s 751 mmHg 64%
07:00 +7°C° 0 mm 1 m/s 751 mmHg 63%
08:00 +7°C° 0 mm 1 m/s 751 mmHg 63%
09:00 +10°C° 0 mm 1 m/s 750 mmHg 56%
10:00 +12°C° 0 mm 1 m/s 750 mmHg 49%
11:00 +14°C° 0 mm 1 m/s 749 mmHg 43%
12:00 +15°C° 0 mm 1 m/s 748 mmHg 39%
13:00 +18°C° 0 mm 1 m/s 748 mmHg 36%
14:00 +19°C° 0 mm 1 m/s 747 mmHg 32%
15:00 +19°C° 0 mm 1 m/s 747 mmHg 34%
16:00 +18°C° 0 mm 1 m/s 746 mmHg 36%
17:00 +18°C° 0 mm 1 m/s 745 mmHg 38%
18:00 +16°C° 0 mm 1 m/s 746 mmHg 41%
19:00 +14°C° 0 mm 1 m/s 746 mmHg 44%
20:00 +12°C° 0 mm 1 m/s 746 mmHg 47%
21:00 +12°C° 0 mm 1 m/s 746 mmHg 49%
22:00 +11°C° 0 mm 1 m/s 746 mmHg 51%
23:00 +10°C° 0 mm 2 m/s 745 mmHg 53%

5 Março, Sexta-feira

Tempo Temperatura Precipitação Vento Pressão Humidade
00:00 +9°C° 0 mm 2 m/s 745 mmHg 54%
01:00 +9°C° 0 mm 2 m/s 745 mmHg 55%
02:00 +9°C° 0 mm 2 m/s 744 mmHg 57%
03:00 +8°C° 0 mm 2 m/s 744 mmHg 57%
04:00 +8°C° 0 mm 2 m/s 744 mmHg 57%
05:00 +8°C° 0 mm 2 m/s 744 mmHg 57%
06:00 +9°C° 0 mm 1 m/s 744 mmHg 57%
07:00 +9°C° 0 mm 1 m/s 744 mmHg 57%
08:00 +9°C° 0 mm 1 m/s 744 mmHg 57%
09:00 +10°C° 0 mm 2 m/s 744 mmHg 51%
10:00 +13°C° 0 mm 2 m/s 744 mmHg 45%
11:00 +16°C° 0 mm 2 m/s 744 mmHg 39%
12:00 +16°C° 0 mm 3 m/s 743 mmHg 36%
13:00 +17°C° 0 mm 3 m/s 743 mmHg 33%
14:00 +18°C° 0 mm 4 m/s 743 mmHg 30%
15:00 +17°C° 0 mm 3 m/s 743 mmHg 32%
16:00 +17°C° 0 mm 3 m/s 743 mmHg 35%
17:00 +16°C° 0 mm 3 m/s 743 mmHg 37%
18:00 +15°C° 0 mm 2 m/s 743 mmHg 41%
19:00 +13°C° 0 mm 1 m/s 743 mmHg 45%
20:00 +12°C° 0 mm 1 m/s 744 mmHg 49%
21:00 +12°C° 0 mm 1 m/s 744 mmHg 50%
22:00 +11°C° 0 mm 1 m/s 744 mmHg 51%
23:00 +11°C° 0 mm 1 m/s 745 mmHg 52%

6 Março, Sábado

Tempo Temperatura Precipitação Vento Pressão Humidade
00:00 +11°C° 0 mm 1 m/s 744 mmHg 52%
01:00 +10°C° 0 mm 1 m/s 744 mmHg 53%
02:00 +10°C° 0 mm 1 m/s 744 mmHg 53%
03:00 +10°C° 0 mm 1 m/s 744 mmHg 56%
04:00 +8°C° 0 mm 2 m/s 745 mmHg 58%
05:00 +8°C° 0 mm 2 m/s 745 mmHg 61%
06:00 +8°C° 0 mm 2 m/s 745 mmHg 65%
07:00 +8°C° 0 mm 3 m/s 746 mmHg 69%
08:00 +8°C° 0 mm 3 m/s 746 mmHg 73%
09:00 +7°C° 0.1 mm 5 m/s 747 mmHg 69%
10:00 +7°C° 0.1 mm 6 m/s 747 mmHg 64%
11:00 +6°C° 0.1 mm 7 m/s 748 mmHg 59%
12:00 +6°C° 0 mm 7 m/s 748 mmHg 56%
13:00 +6°C° 0 mm 8 m/s 749 mmHg 52%
14:00 +6°C° 0 mm 8 m/s 749 mmHg 48%
15:00 +5°C° 0.1 mm 8 m/s 750 mmHg 46%
16:00 +5°C° 0.1 mm 7 m/s 751 mmHg 44%
17:00 +4°C° 0.1 mm 6 m/s 751 mmHg 42%
18:00 +3°C° 0 mm 5 m/s 752 mmHg 46%
19:00 +3°C° 0 mm 4 m/s 753 mmHg 50%
20:00 +2°C° 0 mm 3 m/s 754 mmHg 55%
21:00 +2°C° 0 mm 3 m/s 754 mmHg 57%
22:00 +1°C° 0 mm 3 m/s 755 mmHg 59%
23:00 +1°C° 0 mm 3 m/s 756 mmHg 61%

7 Março, Domingo

Tempo Temperatura Precipitação Vento Pressão Humidade
00:00 +1°C° 0 mm 2 m/s 756 mmHg 67%
01:00 +1°C° 0 mm 2 m/s 756 mmHg 73%
02:00 +1°C° 0 mm 2 m/s 756 mmHg 80%
03:00 +1°C° 0.1 mm 2 m/s 756 mmHg 83%
04:00 +1°C° 0.1 mm 2 m/s 757 mmHg 87%
05:00 +2°C° 0.1 mm 1 m/s 757 mmHg 90%
06:00 +2°C° 0.1 mm 1 m/s 757 mmHg 89%
07:00 +2°C° 0.1 mm 1 m/s 757 mmHg 88%
08:00 +2°C° 0.1 mm 1 m/s 757 mmHg 87%
09:00 +2°C° 0.1 mm 1 m/s 757 mmHg 82%
10:00 +3°C° 0.1 mm 1 m/s 757 mmHg 77%
11:00 +4°C° 0.1 mm 1 m/s 756 mmHg 72%
12:00 +5°C° 0 mm 1 m/s 756 mmHg 67%
13:00 +4°C° 0 mm 2 m/s 755 mmHg 62%
14:00 +5°C° 0 mm 2 m/s 755 mmHg 57%
15:00 +6°C° 0 mm 1 m/s 754 mmHg 56%
16:00 +6°C° 0 mm 1 m/s 753 mmHg 55%
17:00 +6°C° 0 mm 1 m/s 753 mmHg 54%
18:00 +5°C° 0 mm 1 m/s 753 mmHg 57%
19:00 +4°C° 0 mm 0 m/s 753 mmHg 61%
20:00 +3°C° 0 mm 0 m/s 752 mmHg 65%
21:00 +2°C° 0 mm 0 m/s 752 mmHg 66%
22:00 +2°C° 0 mm 0 m/s 752 mmHg 67%
23:00 +2°C° 0 mm 0 m/s 752 mmHg 68%
Mostrar mais

Necessitamos do seu Consentimento

A Meteoprog e os seus Fornecedores de Serviços podem armazenar e aceder a dados pessoais como cookies, identificadores do dispositivo ou outras tecnologias semelhantes existentes no seu dispositivo e processar estes dados para personalizar conteúdos e anúncios, assim como funcionalidades nas redes sociais e análise de tráfego.

  • Armazenar e/ou aceder a informações no seu dispositivo

    Os cookies, identificadores do dispositivo ou outras informações podem ser armazenados ou acedidos no seu dispositivo, para os fins acima indicados.

  • Anúncios e conteúdos personalizados, medição de anúncios e conteúdos, dados sobre o público-alvo e desenvolvimento de produtos

    Os anúncios e os conteúdos podem ser personalizados com base num perfil. Podem ser adicionados dados adicionais para uma maior personalização dos anúncios e dos conteúdos. A eficácia dos anúncios e dos conteúdos pode ser medida. Podem ser obtidas informações sobre o público que visualizou os anúncios e os conteúdos. Estes dados podem ser usados para desenvolver ou melhorar sistemas, softwares ou a experiência do utilizador.

Ao clicar em "Eu concordo”, permitirá o uso de cookies, identificadores do dispositivo e web beacons mencionados ou outras tecnologias semelhantes. As configurações do navegador do seu dispositivo podem ser alteradas.

Para certos fins, podem ser invocados interesses legítimos ao invés de consentimento. Pode ler mais informação sobre este assunto na nossa Política de Privacidade e Cookies.